THOR 5

Last updated on Sun Jun 21 2026 00:03:04 GMT+0000 (Coordinated Universal Time)

1 32487U 08006A 26171.24928350 -.00000014 00000+0 00000+0 0 9992 2 32487 0.0521 255.4404 0002444 198.7766 263.2281 1.00272539 67349
UTC large
Height (km)
Speed (km/s)
/
Latitude / Longitude
Inclination (degrees)
Orbital Period (minutes)
Azimuth
Elevation
Range (km)
Doppler Factor

Next 0 passes for location: London (51.5072 / 0.1276)

No passes found over London.
THOR 5